Weather History for Dyersburg, TN

Change the Weather History Date:

Sunday, December 9, 2012

  Actual Average Record
Temperature  
Mean Temperature 60 °F -  
Max Temperature 66 °F 48 °F 66 °F (2003)
Min Temperature 53 °F 34 °F 15 °F (2005)
Degree Days  
Heating Degree Days 6    
Growing Degree Days 10 (Base 50)    
Moisture  
Dew Point 54 °F    
Average Humidity 77    
Maximum Humidity 82    
Minimum Humidity 72    
Precipitation  
Precipitation 0.84 in - - ()
Sea Level Pressure  
Sea Level Pressure 29.84 in    
Wind  
Wind Speed 8 mph (SSW)    
Max Wind Speed 16 mph    
Max Gust Speed 24 mph    
Visibility 8 miles    
Events Thunderstorm    
Averages and records for this station are not official NWS values.
T = Trace of Precipitation, MM = Missing Value Source: NWS Daily Summary

Daily Weather History Graph

Daily Weather History Graph

Search for Another Location

Airport:

Trip Planner

Search our weather history database for the weather conditions in past years. The results will help you decide how hot, cold, wet, or windy it might be!

Date:

Astronomy

Dec. 09, 2012 Rise Set
Actual Time 6:56 AM CST 4:43 PM CST
Civil Twilight 6:28 AM CST 5:11 PM CST
Nautical Twilight 5:56 AM CST 5:43 PM CST
Astronomical Twilight 5:25 AM CST 6:15 PM CST
Moon 2:35 AM CST (12/9) 1:45 PM CST (12/9)
Length of Visible Light 10h 43m
Length of Day
9h 46m
Waning Crescent, 18% of the Moon is Illuminated
Dec 9
Waning Crescent
Dec 13
New
Dec 19
First Quarter
Dec 28
Full
Jan 4
Last Quarter

Hourly Weather History & Observations

Time (CST) Temp. Dew Point Humidity Pressure Visibility Wind Dir Wind Speed Gust Speed Precip Events Conditions
12:15 AM 55.4 °F 50.0 °F 82% 29.91 in 1.2 mi East 6.9 mph - N/A   Overcast
12:35 AM 57.2 °F 50.0 °F 77% 29.90 in 0.8 mi East 6.9 mph - N/A   Overcast
12:56 AM 57.2 °F 51.8 °F 82% 29.90 in 0.5 mi East 4.6 mph - N/A   Overcast
1:15 AM 57.2 °F 51.8 °F 82% 29.90 in 0.5 mi Calm Calm - N/A   Overcast
1:35 AM 57.2 °F 51.8 °F 82% 29.88 in 0.2 mi East 4.6 mph - N/A   Overcast
1:55 AM 59.0 °F 51.8 °F 77% 29.87 in 0.8 mi SE 6.9 mph - N/A   Overcast
2:15 AM 60.8 °F 53.6 °F 77% 29.87 in 3.0 mi SE 6.9 mph - N/A   Overcast
2:35 AM 60.8 °F 53.6 °F 77% 29.86 in 4.0 mi SSE 6.9 mph - N/A Thunderstorm Overcast
2:55 AM 60.8 °F 55.4 °F 82% 29.86 in 7.0 mi NNW 6.9 mph - N/A Thunderstorm Thunderstorm
3:15 AM 60.8 °F 53.6 °F 77% 29.86 in 6.0 mi West 9.2 mph - 0.33 in Thunderstorm Thunderstorm
3:55 AM 60.8 °F 53.6 °F 77% 29.87 in 10.0 mi SW 3.5 mph - N/A   Overcast
4:16 AM 60.8 °F 53.6 °F 77% 29.87 in 10.0 mi SSE 4.6 mph - N/A   Overcast
4:35 AM 62.6 °F 55.4 °F 77% 29.85 in 9.0 mi South 11.5 mph 17.3 mph N/A Thunderstorm Overcast
4:55 AM 60.8 °F 55.4 °F 82% 29.85 in 10.0 mi South 10.4 mph 17.3 mph 0.01 in Thunderstorm Thunderstorm
5:15 AM 60.8 °F 55.4 °F 82% 29.86 in 10.0 mi SSW 5.8 mph - 0.01 in   Overcast
5:35 AM 60.8 °F 55.4 °F 82% 29.87 in 10.0 mi South 4.6 mph - 0.01 in   Overcast
6:15 AM 62.6 °F 55.4 °F 77% 29.90 in 10.0 mi SW 10.4 mph 17.3 mph 0.07 in Thunderstorm Thunderstorm
6:35 AM 60.8 °F 55.4 °F 82% 29.88 in 10.0 mi SW 9.2 mph - 0.12 in Thunderstorm Overcast
6:55 AM 60.8 °F 53.6 °F 77% 29.87 in 10.0 mi SW 4.6 mph - 0.13 in   Overcast
7:35 AM 60.8 °F 53.6 °F 77% 29.87 in 10.0 mi SSE 6.9 mph - N/A   Mostly Cloudy
7:55 AM 60.8 °F 53.6 °F 77% 29.87 in 10.0 mi SSE 6.9 mph - N/A   Overcast
8:16 AM 60.8 °F 53.6 °F 77% 29.86 in 10.0 mi SSE 5.8 mph - N/A   Overcast
8:35 AM 62.6 °F 55.4 °F 77% 29.88 in 10.0 mi South 4.6 mph - N/A   Overcast
8:55 AM 62.6 °F 55.4 °F 77% 29.88 in 10.0 mi South 8.1 mph - N/A   Overcast
9:15 AM 62.6 °F 55.4 °F 77% 29.87 in 10.0 mi South 9.2 mph - N/A   Overcast
9:35 AM 62.6 °F 55.4 °F 77% 29.88 in 10.0 mi SSW 8.1 mph - N/A   Overcast
9:55 AM 62.6 °F 55.4 °F 77% 29.91 in 10.0 mi SSW 10.4 mph - 0.01 in   Overcast
10:35 AM 62.6 °F 53.6 °F 72% 29.89 in 10.0 mi South 11.5 mph 24.2 mph 0.03 in   Overcast
11:15 AM 60.8 °F 53.6 °F 77% 29.86 in 4.0 mi SSE 15.0 mph 20.7 mph N/A   Overcast
11:35 AM 60.8 °F 53.6 °F 77% 29.87 in 10.0 mi South 8.1 mph - N/A   Mostly Cloudy
11:55 AM 62.6 °F 55.4 °F 77% 29.86 in 10.0 mi South 9.2 mph - N/A   Overcast
12:15 PM 62.6 °F 55.4 °F 77% 29.84 in 10.0 mi SSE 11.5 mph 16.1 mph N/A   Overcast
12:35 PM 62.6 °F 55.4 °F 77% 29.84 in 10.0 mi South 9.2 mph 16.1 mph N/A   Overcast
12:55 PM 62.6 °F 55.4 °F 77% 29.83 in 10.0 mi South 8.1 mph - 0.03 in   Overcast
1:35 PM 64.4 °F 57.2 °F 77% 29.82 in 10.0 mi South 9.2 mph - N/A   Overcast
1:55 PM 64.4 °F 55.4 °F 73% 29.81 in 10.0 mi South 10.4 mph 20.7 mph N/A   Overcast
2:35 PM 66.2 °F 57.2 °F 73% 29.80 in 10.0 mi SSW 12.7 mph 24.2 mph N/A Thunderstorm Overcast
2:55 PM 66.2 °F 57.2 °F 73% 29.80 in 10.0 mi South 8.1 mph - N/A   Overcast
3:15 PM 64.4 °F 55.4 °F 73% 29.79 in 5.0 mi SSW 6.9 mph - 0.27 in Thunderstorm Thunderstorm
3:35 PM 64.4 °F 57.2 °F 77% 29.78 in 10.0 mi South 8.1 mph - 0.27 in   Overcast
3:55 PM 64.4 °F 57.2 °F 77% 29.77 in 10.0 mi South 11.5 mph 16.1 mph 0.29 in   Mostly Cloudy
4:35 PM 64.4 °F 57.2 °F 77% 29.77 in 10.0 mi South 8.1 mph - N/A   Overcast
4:55 PM 64.4 °F 57.2 °F 77% 29.78 in 10.0 mi South 6.9 mph - N/A   Overcast
5:16 PM 64.4 °F 57.2 °F 77% 29.78 in 10.0 mi South 9.2 mph - N/A   Overcast
5:35 PM 66.2 °F 57.2 °F 73% 29.78 in 10.0 mi SSW 9.2 mph - N/A   Overcast
5:55 PM 66.2 °F 57.2 °F 73% 29.78 in 10.0 mi SSW 8.1 mph - N/A   Overcast
6:15 PM 66.2 °F 57.2 °F 73% 29.77 in 10.0 mi South 8.1 mph - N/A Thunderstorm Overcast
6:35 PM 64.4 °F 57.2 °F 77% 29.78 in 10.0 mi South 5.8 mph - N/A Thunderstorm Mostly Cloudy
7:15 PM 64.4 °F 57.2 °F 77% 29.77 in 10.0 mi South 6.9 mph - N/A   Overcast
7:35 PM 66.2 °F 57.2 °F 73% 29.77 in 10.0 mi SSW 10.4 mph - N/A   Overcast
7:56 PM 66.2 °F 57.2 °F 73% 29.79 in 10.0 mi WNW 15.0 mph - N/A   Mostly Cloudy
8:15 PM 62.6 °F 53.6 °F 72% 29.80 in 10.0 mi West 13.8 mph 18.4 mph N/A Thunderstorm Overcast
8:35 PM 60.8 °F 53.6 °F 77% 29.82 in 6.0 mi WSW 10.4 mph 16.1 mph N/A Thunderstorm Overcast
8:56 PM 60.8 °F 53.6 °F 77% 29.79 in 8.0 mi West 10.4 mph - N/A   Overcast
9:15 PM 60.8 °F 53.6 °F 77% 29.79 in 8.0 mi West 13.8 mph 17.3 mph N/A   Overcast
9:35 PM 60.8 °F 53.6 °F 77% 29.78 in 8.0 mi West 9.2 mph - N/A   Overcast
9:55 PM 59.0 °F 51.8 °F 77% 29.80 in 10.0 mi WNW 10.4 mph - N/A   Overcast
10:15 PM 55.4 °F 48.2 °F 77% 29.83 in 10.0 mi North 12.7 mph 20.7 mph N/A   Overcast
10:35 PM 55.4 °F 46.4 °F 72% 29.82 in 9.0 mi North 11.5 mph 19.6 mph N/A   Overcast
10:56 PM 53.6 °F 46.4 °F 77% 29.80 in 10.0 mi North 13.8 mph 19.6 mph N/A   Overcast
11:15 PM 53.6 °F 44.6 °F 72% 29.81 in 10.0 mi North 16.1 mph 20.7 mph N/A   Overcast
11:35 PM 53.6 °F 44.6 °F 72% 29.83 in 10.0 mi North 8.1 mph 17.3 mph N/A   Overcast